Location: Ciula Mare
(45.6000°N, 22.8167°E)
Time: 04:28:09
(UTC+00:00)

Lacrosse 5 - Pass Details

Date: 03 February 2023
Orbit: 714 x 724 km, 57.0° (Epoch: 09 March)

Event Time Altitude Azimuth Distance (km) Brightness Sun altitude
Rises 18:28:58 0° 266° (W) 3,134 6.3 -30.2°
Reaches altitude 10° 18:31:35 10° 277° (W) 2,216 5.3 -30.6°
Enters shadow 18:35:50 31° 333° (NNW) 1,265 3.3 -31.4°
